Wind_Speed
30 33 36 35 35 34 34 35 35 36 37 37 37 35 33 32 30 30 31 35 38 31 30 28 33 32 37 41 40 36 40 51 52 46 43 25 26 17 11 21 26 26 30 23 28
34 36 36 37 39 40 39 33 33 37 38 38 38 37 35 35 32 29 34 32 33 34 34 29 29 29 37 43 43 41 45 57 49 44 41 33 25 23 18 23 27 27 30 27 26
40 42 44 45 45 43 44 44 39 36 38 40 40 40 36 35 35 34 20 26 23 21 24 28 29 29 39 39 42 46 57 45 48 43 38 35 29 23 20 22 26 27 32 34 27
44 46 47 48 50 50 48 42 37 42 41 40 43 46 42 35 31 37 37 31 32 28 22 20 24 34 37 40 37 40 50 48 45 34 30 36 32 34 26 19 22 21 31 29 26
48 51 53 54 54 54 52 46 40 40 42 43 42 46 44 37 31 26 30 29 28 29 30 25 18 27 39 40 37 45 44 37 39 42 43 34 35 38 35 26 25 25 22 26 29
50 52 55 56 56 55 54 50 45 45 41 43 43 45 45 36 33 33 35 37 34 32 29 31 32 25 33 40 40 42 40 44 42 39 34 35 43 36 42 33 29 34 27 25 24
53 52 58 56 56 56 51 49 44 47 46 42 44 47 57 41 37 34 35 36 36 32 33 24 29 35 33 35 41 47 48 41 47 46 43 37 43 49 43 35 39 36 27 30 29
53 56 59 56 58 56 52 43 43 47 45 50 49 54 58 43 32 18 24 26 25 26 28 26 22 32 37 31 22 20 38 48 52 42 51 37 55 49 41 39 36 38 31 30 34
56 57 57 59 60 57 47 48 42 46 48 52 54 50 53 28 25 26 23 26 26 20 17 18 26 31 33 35 34 35 29 41 48 45 41 41 57 42 42 41 39 41 38 30 31
58 58 59 59 56 53 48 47 43 45 47 49 49 43 32 25 24 25 28 23 23 13 10 12 21 33 32 30 29 29 23 30 26 26 27 44 51 42 27 32 42 37 44 38 33
59 58 57 54 55 48 48 39 40 41 48 43 45 49 35 36 32 31 31 21 22 27 25 16 20 29 34 35 38 34 28 30 27 25 25 30 43 48 43 32 37 37 37 45 37
57 54 53 52 52 49 41 33 28 30 43 41 47 47 43 26 31 24 27 27 20 21 21 23 29 26 25 22 24 33 41 49 44 34 29 31 36 30 35 42 47 40 41 38 46
53 50 50 51 48 46 40 34 31 30 40 43 38 26 15 13 13 4 7 4 4 6 6 13 9 3 18 24 27 29 33 41 34 34 35 32 47 40 33 36 40 44 42 45 45
50 48 47 49 47 42 36 31 32 33 21 14 7 6 5 2 1 2 2 4 4 3 6 12 5 7 12 16 17 26 27 32 34 29 23 22 21 34 37 41 38 42 47 47 49
47 48 44 43 41 36 31 32 35 35 4 1 6 4 7 3 2 1 1 9 9 10 13 14 16 18 24 23 18 30 20 24 28 24 29 35 23 36 28 41 42 39 41 45 46
46 50 44 39 37 30 27 30 33 5 3 1 5 6 6 6 5 7 13 15 15 16 17 21 21 19 21 21 20 27 29 30 26 28 19 34 26 38 38 50 44 39 44 45 47
45 41 37 32 26 21 23 27 9 4 4 6 8 4 8 11 10 11 14 11 9 8 15 24 25 27 19 24 25 26 27 5 4 7 12 30 24 45 34 42 53 42 38 45 47
50 35 28 20 20 20 23 12 1 3 7 12 10 7 14 12 13 13 13 14 9 12 16 9 20 17 25 16 25 26 24 12 6 4 10 21 10 38 40 52 43 37 38 41 51
43 31 27 21 18 17 13 6 4 13 10 8 9 8 9 6 10 12 8 6 2 2 7 5 12 22 26 18 18 26 23 34 30 37 19 11 17 38 40 42 39 34 35 40 46
35 30 21 21 13 15 15 14 14 20 19 14 13 7 9 7 7 8 6 5 6 8 7 5 13 27 30 27 23 18 33 15 22 7 13 12 23 28 14 17 31 47 48 49 47
31 19 20 21 18 20 18 19 21 21 20 13 10 10 12 11 14 15 10 8 10 7 9 12 10 25 29 18 26 29 29 18 25 22 5 13 16 53 45 39 35 31 35 44 40
26 24 28 27 19 18 16 21 21 25 23 20 21 19 19 11 15 13 15 15 9 15 18 12 9 20 28 15 9 22 18 27 14 6 10 25 32 19 22 15 14 33 40 45 47
33 34 19 21 16 17 18 22 24 24 25 22 21 19 17 14 11 13 12 9 13 17 6 10 6 11 14 11 16 31 29 27 34 7 12 3 6 8 27 21 19 20 24 44 44
33 31 31 25 21 19 22 26 28 27 27 25 20 18 21 19 18 12 11 8 3 12 11 12 15 13 10 18 23 28 33 28 24 15 11 19 18 23 30 33 24 22 20 21 41
35 36 33 26 34 28 29 29 31 29 29 25 23 23 18 22 19 28 27 22 18 11 16 13 18 17 24 22 27 33 29 28 26 30 20 25 29 25 23 26 35 35 29 22 31
27 33 39 39 38 28 29 29 29 29 23 26 26 23 20 25 24 11 10 16 15 16 18 20 24 22 31 25 24 27 28 32 17 23 29 34 31 16 22 15 21 34 33 16 20
29 29 26 36 35 34 33 24 24 24 24 15 20 22 23 17 17 15 15 23 21 18 20 20 20 16 22 14 20 21 9 18 26 13 12 8 15 22 16 10 11 25 28 22 21
Wind_Direction
333 332 333 330 329 327 328 324 322 320 319 317 314 312 309 306 302 299 293 280 278 273 268 256 248 240 233 223 222 224 228 237 238 239 242 230 234 214 252 256 240 246 230 243 243
330 329 328 327 326 325 324 320 316 320 316 315 312 310 311 307 306 299 296 288 279 274 269 250 247 240 229 230 221 212 226 237 239 243 248 247 235 229 269 261 248 237 225 239 225
332 331 330 329 326 323 322 325 325 317 310 310 310 311 310 311 309 305 304 304 294 289 272 255 237 228 228 231 226 221 230 237 243 245 246 250 235 227 247 254 257 224 223 234 232
331 328 326 323 323 323 325 324 313 313 314 308 307 307 309 314 309 309 300 290 289 279 273 266 247 221 226 226 227 229 237 234 239 239 242 238 237 233 227 229 232 224 233 241 232
329 327 324 322 321 321 320 317 313 306 307 307 301 301 301 310 311 299 304 300 296 284 266 252 250 231 230 230 225 227 238 241 246 247 243 238 234 232 226 216 219 212 237 236 241
325 323 323 320 316 316 315 314 308 304 304 297 294 294 295 304 307 301 291 289 283 274 268 255 250 243 239 234 227 228 239 239 240 239 243 246 241 233 226 219 212 212 232 240 235
321 321 322 318 315 313 311 312 306 303 299 296 295 292 290 304 306 295 284 281 280 272 265 258 250 249 244 243 240 237 241 244 243 236 240 239 251 235 227 226 220 220 223 243 234
322 318 317 315 314 312 311 308 305 299 299 295 292 290 291 307 299 288 283 286 280 279 262 239 240 238 237 235 226 235 240 240 240 236 235 232 248 244 237 230 229 214 222 234 232
321 318 316 313 312 311 309 307 302 298 297 292 286 285 298 297 292 288 277 282 282 279 257 240 230 231 238 234 240 237 246 234 245 238 245 236 246 250 247 239 234 223 217 223 234
321 318 315 314 313 312 306 302 300 296 295 290 286 282 288 295 301 284 271 278 275 260 257 269 234 231 238 235 233 233 255 256 261 247 244 243 246 242 252 248 239 235 226 215 229
319 319 317 317 315 316 313 307 300 297 297 298 283 287 286 301 292 269 277 268 267 266 266 243 233 229 240 241 244 247 251 264 259 257 254 253 256 250 239 251 253 236 227 224 219
320 322 319 317 319 321 322 311 312 303 302 297 286 281 292 286 281 282 268 269 271 266 250 243 239 239 257 258 256 250 249 253 255 257 241 256 260 262 253 246 243 248 233 228 220
324 324 320 318 321 324 321 321 321 326 293 285 290 296 292 283 293 268 247 216 281 277 248 257 252 234 246 250 253 250 248 256 266 273 264 265 266 258 245 248 247 244 243 229 222
326 323 321 321 322 325 327 328 328 327 281 298 308 336 299 255 19 329 314 247 226 282 265 263 323 278 279 283 279 267 256 268 271 267 265 263 269 267 256 248 236 240 241 237 226
327 320 324 320 320 324 330 328 319 308 292 328 340 309 325 264 250 357 353 309 304 279 282 273 271 272 272 285 280 272 295 284 270 273 269 257 263 268 262 251 241 226 231 233 227
328 323 325 323 323 331 334 320 304 312 263 257 254 280 292 293 276 296 310 303 307 294 288 294 298 291 294 296 283 285 282 281 275 265 254 254 233 264 246 247 245 246 240 233 233
334 329 322 320 328 336 328 310 295 200 197 243 267 304 274 278 287 297 287 266 249 286 287 305 296 313 309 305 289 282 280 298 276 201 241 246 228 243 250 251 244 240 242 229 230
339 337 337 338 335 340 307 284 278 280 241 243 291 299 260 284 283 273 264 279 277 254 290 315 317 320 318 301 298 297 273 231 236 208 267 258 242 251 261 253 251 246 243 245 235
341 339 350 341 325 333 294 311 277 302 286 264 296 276 289 268 252 284 284 281 83 227 230 284 265 296 303 313 296 289 277 254 252 259 284 282 262 263 258 253 256 243 237 235 236
338 350 329 329 308 309 312 302 294 302 290 281 293 243 249 223 255 285 293 196 228 266 284 260 294 292 299 305 306 271 282 266 223 240 243 236 250 252 244 264 261 253 256 236 233
345 329 326 329 315 312 301 295 303 311 301 288 277 255 248 268 263 272 266 250 268 271 304 317 304 288 303 313 315 308 304 257 249 214 224 252 247 249 255 266 262 270 237 228 229
328 319 323 318 303 298 297 305 314 316 299 287 284 279 269 250 257 251 253 257 240 291 305 307 288 281 305 312 289 339 333 355 219 233 242 242 259 243 201 253 272 246 244 231 227
312 309 319 325 283 302 318 302 295 302 314 294 281 284 276 257 246 257 265 278 258 262 277 299 273 305 311 313 294 330 330 330 334 293 239 219 284 232 256 258 259 267 253 249 246
302 291 299 300 298 281 308 314 294 296 303 300 284 285 271 257 236 252 242 238 242 291 268 275 279 267 256 292 301 301 314 319 309 282 296 264 286 290 293 275 248 284 280 264 243
278 287 286 277 298 286 296 298 299 280 289 287 276 292 273 263 261 245 245 253 264 268 272 283 276 278 281 289 293 297 299 302 295 289 269 277 302 314 321 301 276 265 295 262 229
256 273 284 279 284 290 291 281 304 300 287 278 276 292 278 258 255 260 241 238 262 257 270 273 277 282 287 303 294 296 288 303 306 301 293 284 291 296 298 338 294 273 290 259 222
281 261 274 290 289 294 286 304 305 302 290 291 288 274 268 265 260 259 253 256 256 261 263 264 269 285 289 306 303 297 305 316 322 318 263 282 296 293 297 316 314 282 285 245 230
Height
3127 3124 3120 3115 3110 3105 3101 3096 3091 3086 3080 3076 3071 3069 3067 3065 3064 3061 3058 3055 3051 3055 3054 3056 3055 3059 3062 3060 3065 3070 3067 3054 3056 3064 3066 3077 3079 3082 3084 3085 3086 3089 3089 3093 3096
3124 3120 3115 3111 3106 3101 3097 3093 3087 3081 3076 3070 3066 3062 3061 3057 3055 3054 3050 3046 3045 3044 3044 3046 3048 3052 3051 3052 3055 3055 3051 3043 3054 3061 3065 3071 3074 3075 3077 3079 3080 3083 3084 3086 3089
3117 3112 3107 3102 3097 3093 3089 3084 3081 3077 3071 3065 3059 3055 3055 3051 3047 3042 3042 3040 3038 3037 3036 3036 3039 3042 3042 3044 3045 3045 3033 3045 3051 3056 3062 3064 3066 3069 3071 3073 3075 3076 3079 3081 3084
3111 3105 3100 3094 3088 3083 3079 3077 3074 3068 3064 3059 3053 3047 3046 3048 3048 3038 3033 3034 3032 3032 3031 3031 3031 3031 3033 3035 3040 3039 3035 3041 3045 3051 3055 3055 3060 3058 3062 3065 3072 3073 3075 3076 3080
3104 3097 3091 3084 3079 3073 3069 3066 3065 3062 3057 3052 3046 3040 3035 3042 3038 3036 3028 3025 3027 3025 3025 3025 3026 3027 3025 3027 3033 3028 3031 3036 3041 3043 3045 3051 3048 3052 3053 3059 3064 3068 3068 3070 3074
3096 3089 3083 3077 3070 3064 3059 3055 3052 3051 3049 3044 3038 3033 3028 3034 3028 3028 3025 3020 3018 3016 3017 3018 3020 3021 3019 3019 3022 3023 3027 3028 3031 3032 3037 3041 3040 3046 3046 3054 3055 3061 3061 3064 3067
3088 3082 3075 3067 3061 3055 3050 3045 3043 3040 3036 3033 3029 3023 3013 3024 3020 3016 3013 3010 3006 3008 3006 3011 3012 3013 3012 3013 3018 3017 3019 3019 3020 3025 3025 3035 3032 3026 3040 3046 3049 3053 3055 3058 3061
3080 3073 3065 3058 3051 3045 3039 3036 3033 3028 3025 3020 3018 3013 3002 3015 3010 3009 3006 3003 3001 2998 2998 3003 3004 3004 3002 3008 3010 3010 3012 3009 3006 3016 3017 3030 3009 3023 3034 3038 3039 3044 3048 3051 3054
3071 3063 3055 3048 3041 3034 3028 3025 3022 3017 3012 3009 3005 3002 2998 3000 3001 2999 2999 2997 2995 2994 2993 2994 2997 2997 2998 3000 3004 3002 2997 2996 3001 3009 3017 3021 3004 3017 3025 3029 3031 3035 3039 3043 3047
3061 3053 3045 3036 3028 3023 3015 3012 3009 3007 3003 3001 2997 2998 2994 2993 2992 2990 2988 2990 2989 2990 2991 2991 2991 2990 2993 2997 2992 2997 2997 2998 2997 3002 3009 3011 2998 3010 3017 3019 3022 3027 3031 3035 3039
3050 3042 3032 3025 3017 3015 3006 3003 3003 3002 2994 2994 2987 2983 2988 2982 2986 2983 2982 2984 2985 2985 2986 2988 2987 2984 2987 2991 2993 2995 2994 2993 2992 3000 3002 3000 2995 3004 3010 3012 3014 3018 3022 3027 3030
3039 3032 3022 3015 3009 3005 3000 2997 2996 2997 2983 2982 2980 2972 2978 2978 2972 2977 2978 2979 2978 2976 2980 2982 2977 2984 2987 2987 2987 2988 2988 2981 2984 2992 2994 2991 2985 2993 2997 3000 3005 3010 3014 3017 3024
3030 3023 3013 3006 3002 2996 2990 2987 2984 2983 2979 2972 2972 2972 2970 2971 2971 2972 2973 2975 2975 2975 2976 2976 2979 2981 2983 2982 2982 2981 2982 2977 2984 2986 2986 2986 2975 2982 2985 2991 2995 2999 3004 3010 3014
3022 3014 3008 2999 2993 2987 2983 2980 2979 2980 2976 2973 2971 2970 2970 2971 2973 2971 2972 2975 2976 2976 2975 2974 2975 2976 2977 2979 2981 2977 2979 2979 2979 2982 2978 2981 2968 2973 2977 2979 2985 2988 2993 2998 3005
3015 3004 3002 2993 2987 2983 2981 2977 2977 2976 2979 2974 2973 2971 2971 2973 2973 2971 2972 2972 2973 2974 2975 2972 2972 2972 2970 2973 2974 2966 2973 2973 2972 2971 2974 2972 2975 2959 2969 2968 2972 2977 2982 2988 2995
3009 2994 2991 2985 2980 2979 2977 2976 2975 2979 2977 2975 2972 2970 2971 2972 2972 2971 2971 2970 2971 2969 2968 2965 2966 2967 2964 2966 2967 2965 2967 2965 2964 2964 2961 2960 2968 2943 2956 2954 2960 2967 2974 2979 2986
3003 2992 2983 2979 2977 2975 2975 2975 2977 2973 2974 2973 2971 2970 2970 2970 2969 2970 2968 2967 2968 2967 2962 2960 2957 2960 2960 2959 2959 2962 2965 2964 2959 2954 2948 2951 2956 2933 2939 2945 2949 2956 2962 2969 2977
2990 2985 2980 2975 2975 2973 2972 2975 2975 2973 2972 2970 2970 2970 2968 2968 2965 2964 2964 2964 2965 2965 2962 2960 2954 2955 2958 2961 2957 2957 2962 2960 2952 2953 2936 2944 2942 2920 2931 2938 2941 2950 2955 2962 2969
2983 2977 2974 2973 2972 2971 2972 2974 2973 2970 2970 2969 2969 2967 2966 2965 2964 2961 2960 2961 2962 2961 2964 2961 2956 2953 2956 2955 2956 2948 2950 2949 2950 2946 2942 2940 2932 2917 2923 2930 2935 2940 2947 2950 2958
2979 2973 2972 2972 2971 2971 2972 2972 2968 2967 2966 2966 2966 2965 2965 2964 2962 2960 2958 2960 2959 2958 2957 2958 2957 2948 2948 2949 2947 2947 2944 2944 2941 2938 2938 2928 2929 2911 2917 2921 2926 2930 2935 2940 2947
2974 2973 2972 2971 2970 2969 2969 2967 2965 2964 2964 2964 2962 2961 2961 2961 2959 2958 2956 2958 2956 2955 2954 2954 2953 2945 2945 2946 2942 2936 2935 2935 2933 2926 2928 2924 2916 2902 2915 2920 2923 2924 2928 2933 2938
2973 2972 2969 2967 2967 2964 2963 2963 2962 2960 2960 2959 2957 2956 2955 2956 2955 2954 2951 2951 2952 2950 2951 2950 2949 2942 2940 2940 2938 2939 2932 2923 2919 2921 2919 2919 2901 2909 2912 2914 2915 2916 2917 2924 2933
2969 2965 2963 2966 2962 2960 2959 2958 2955 2953 2952 2953 2952 2952 2952 2951 2952 2948 2947 2946 2947 2947 2948 2948 2945 2940 2934 2937 2934 2932 2928 2922 2917 2915 2914 2912 2903 2901 2908 2907 2908 2908 2908 2909 2914
2966 2962 2958 2957 2956 2956 2953 2952 2949 2948 2945 2944 2946 2946 2946 2945 2945 2944 2944 2944 2944 2944 2945 2944 2942 2941 2938 2935 2933 2927 2923 2923 2923 2919 2911 2905 2904 2904 2900 2898 2898 2900 2901 2899 2901
2961 2956 2953 2951 2950 2951 2950 2947 2945 2945 2944 2941 2939 2940 2941 2939 2940 2939 2941 2941 2941 2941 2940 2940 2936 2936 2933 2930 2927 2924 2920 2918 2917 2909 2908 2904 2905 2900 2894 2891 2890 2890 2889 2890 2892
2954 2954 2948 2945 2944 2942 2944 2940 2940 2941 2940 2938 2936 2935 2936 2934 2934 2933 2936 2937 2937 2936 2935 2935 2931 2931 2925 2926 2921 2914 2914 2911 2908 2901 2899 2898 2896 2895 2892 2891 2886 2887 2887 2886 2888
2945 2946 2945 2942 2941 2939 2935 2934 2932 2933 2931 2930 2930 2930 2927 2928 2930 2930 2931 2931 2932 2931 2930 2931 2929 2928 2921 2924 2919 2913 2910 2906 2903 2896 2896 2897 2893 2889 2889 2886 2884 2884 2887 2886 2886